Theta_e
313 313 318 324 324 325 327 331 332 334 333 327 331 326 320 321 319 322 322 322 325 321 320 321 320 320 320 321 322 323 322 321 323 320 328 339 326 321 324 330 333 333 338 342 339 336 336 336 336 337 340 341 341 342 340 340 338 338 335 334 335 335 336 335 335 335 335 336 335 336 338 339 338 339 339 338 338 337 337 337 338 339 339 340 340 340 340 340 340 338 336 333 332 331 329 328 327
313 314 319 324 324 324 330 335 328 330 333 324 325 322 319 324 322 322 322 322 324 321 322 321 320 322 321 321 320 321 322 321 321 323 333 334 325 323 324 331 335 333 337 340 339 336 336 337 336 337 339 340 342 341 341 340 338 338 335 335 336 335 336 336 335 335 335 336 336 338 338 339 338 339 338 339 338 337 337 338 338 339 339 339 339 339 339 339 338 337 337 336 335 334 332 332 331
313 318 322 323 326 325 330 335 329 327 328 320 318 323 320 322 321 320 322 322 322 321 322 321 321 323 321 321 320 322 325 322 320 331 336 329 329 326 324 333 335 335 337 339 339 336 336 337 336 337 338 339 341 341 341 340 339 338 335 336 337 336 337 337 336 336 337 338 339 339 338 339 339 339 338 339 338 338 338 338 338 338 338 338 338 339 339 338 336 335 335 335 335 336 335 335 333
319 324 325 323 331 333 333 332 333 326 322 320 316 320 321 320 320 320 322 322 324 322 321 320 321 321 320 321 322 321 323 322 319 331 335 327 331 326 323 332 335 337 338 340 338 335 336 337 337 337 337 338 340 341 341 340 340 339 336 336 338 337 337 338 337 336 338 339 340 339 339 340 339 339 338 338 338 337 337 337 337 338 338 337 337 337 337 336 334 332 332 333 333 335 335 335 334
323 325 324 324 331 333 332 327 331 322 319 324 316 317 320 319 322 321 322 322 324 323 322 322 322 321 320 321 322 321 323 323 319 327 332 326 328 325 323 328 333 336 339 342 339 336 336 336 338 337 337 339 340 341 340 340 339 339 337 337 337 337 337 338 337 337 337 339 340 339 340 340 339 339 338 337 336 335 336 337 337 337 337 336 336 335 334 333 332 330 330 331 331 331 329 328 326
323 325 324 324 326 327 328 325 328 324 324 327 317 318 319 318 321 321 322 321 322 323 322 321 321 321 321 322 321 322 324 323 321 326 329 325 324 323 322 326 332 336 339 343 340 337 335 336 338 337 338 339 341 341 340 340 339 339 337 336 337 337 337 337 338 338 337 339 340 339 340 340 339 338 337 336 335 334 334 336 335 334 335 336 335 333 332 331 330 330 328 328 328 324 321 318 315
322 325 328 328 327 326 325 322 326 326 327 327 318 319 318 319 323 321 323 320 321 322 321 322 321 321 322 322 321 322 322 322 322 324 325 322 321 321 321 325 331 335 339 342 341 338 335 336 337 338 338 338 341 341 340 339 339 338 336 336 336 336 337 337 338 339 338 339 339 340 340 340 339 338 337 336 334 334 333 333 333 332 333 334 334 332 331 330 329 329 328 327 325 320 316 312 308
322 325 331 335 332 329 326 325 328 327 325 323 319 320 318 321 323 322 322 320 320 322 321 322 321 322 323 321 322 324 322 322 323 323 321 319 319 319 321 324 329 335 338 341 341 340 336 335 336 338 338 338 340 340 341 339 339 338 336 335 335 336 337 337 338 339 339 339 340 340 340 340 339 337 336 335 334 334 332 332 331 331 330 331 331 331 330 328 328 327 327 326 324 318 312 308 303
322 323 331 334 330 329 329 328 330 328 323 320 318 320 320 321 323 321 321 322 320 323 323 323 322 321 323 321 323 325 323 324 323 322 319 318 318 317 320 322 327 332 336 340 341 341 339 336 336 338 338 338 338 340 340 339 340 339 338 336 335 336 336 337 338 339 339 339 339 339 339 339 338 337 336 335 334 333 332 331 330 330 329 329 328 329 328 327 327 326 325 324 322 315 308 303 300
325 321 329 335 330 327 328 329 328 327 323 318 318 320 321 321 322 321 320 322 321 322 322 321 321 321 322 321 323 324 324 324 321 320 318 317 317 316 318 319 324 330 334 337 340 341 340 338 336 337 338 337 337 339 339 340 340 339 338 336 336 337 336 337 338 339 339 339 339 338 339 338 338 337 335 335 334 333 331 330 329 329 329 328 327 327 327 326 326 325 324 323 319 309 302 300 299
333 327 330 334 328 324 326 327 325 327 324 319 320 319 321 322 321 321 321 321 320 321 320 319 320 322 321 320 326 326 323 323 319 319 318 317 318 316 317 319 323 328 331 334 338 341 341 340 338 337 337 337 338 339 340 340 340 340 338 337 337 338 337 337 337 338 338 339 339 338 339 338 337 336 335 334 333 332 331 330 328 327 328 327 326 326 325 325 325 324 323 321 314 303 299 298 298
334 333 331 327 325 324 325 324 323 329 329 322 320 319 320 322 321 321 321 319 319 319 320 319 319 320 320 321 326 324 321 321 319 317 318 317 317 317 318 321 323 325 329 330 335 340 340 341 340 339 338 337 338 338 339 340 340 339 338 337 336 337 337 337 338 338 338 338 339 338 338 337 336 335 335 334 333 332 330 330 327 325 326 326 325 325 325 324 324 323 321 316 306 299 298 298 298
328 331 329 326 329 325 322 324 326 331 330 322 319 320 319 320 320 320 320 318 319 318 319 320 318 319 320 322 323 322 321 321 321 320 319 317 317 321 322 323 325 326 329 330 334 338 340 341 341 340 339 338 338 338 338 339 339 339 338 337 337 337 337 337 337 338 338 338 339 338 338 337 336 335 334 333 332 332 330 329 326 324 325 326 325 325 325 324 323 323 319 310 302 298 298 298 298
326 329 326 328 332 326 323 325 327 325 324 322 318 320 319 317 319 319 319 318 319 319 319 320 318 318 319 320 323 328 325 320 323 322 319 317 318 324 327 326 326 328 329 331 334 337 339 340 340 340 339 338 338 338 338 339 338 339 339 338 338 338 337 337 337 338 339 338 338 338 337 336 335 335 333 333 332 330 329 327 326 324 324 326 325 325 324 323 323 321 316 307 300 298 298 298 298
324 331 328 327 330 328 327 325 328 323 322 325 318 319 319 318 319 319 319 317 320 320 318 317 316 317 318 319 324 331 326 320 323 321 319 319 320 324 329 329 327 328 330 333 335 337 338 339 339 339 339 339 338 338 338 338 338 338 339 339 339 339 338 337 337 338 339 338 338 338 337 336 335 334 333 331 330 329 328 326 326 324 323 326 325 324 324 322 322 320 316 308 300 297 298 298 297
325 336 331 326 328 328 327 325 327 323 324 326 318 318 319 318 318 318 319 317 319 321 317 317 317 317 319 318 320 323 321 321 322 320 318 320 322 322 327 331 329 329 330 332 335 336 338 338 338 338 338 338 338 338 338 338 338 338 339 339 339 338 338 338 337 338 338 338 338 337 336 335 334 332 331 330 329 328 328 326 326 322 321 325 324 324 323 321 321 320 317 308 299 297 297 297 297
333 339 329 326 330 328 330 325 320 320 322 322 317 318 317 317 318 317 318 317 319 320 319 318 316 316 317 318 317 317 319 321 319 318 317 318 321 322 325 329 330 330 329 331 333 336 338 337 337 336 337 337 337 337 337 338 338 338 338 339 339 338 338 338 338 337 338 337 337 337 335 335 333 332 330 329 328 327 327 326 326 321 316 321 323 322 322 321 320 319 317 307 298 298 297 297 297
334 336 327 326 330 328 330 323 317 319 319 319 318 317 316 316 316 317 317 317 318 318 319 317 315 316 315 316 315 316 319 320 318 317 318 318 320 323 324 326 329 329 328 329 331 334 336 336 336 335 335 335 335 336 336 337 337 338 338 338 339 338 338 338 338 337 337 337 336 336 334 334 333 331 330 328 328 327 327 326 326 322 312 315 321 321 321 321 320 319 316 306 297 297 296 297 297
331 332 327 331 334 330 326 319 317 317 317 319 319 317 317 316 315 316 316 317 318 317 318 316 316 316 315 314 313 316 319 318 318 318 319 320 320 322 323 323 325 326 325 326 327 330 333 335 335 334 334 333 333 333 334 336 337 338 338 338 338 338 338 337 338 337 337 336 336 335 334 333 332 331 330 329 328 326 327 326 325 324 314 311 318 320 320 321 319 319 316 306 296 297 296 297 297
330 328 326 334 334 326 322 319 317 316 317 319 319 318 318 318 316 316 316 317 318 317 318 317 317 317 316 316 313 316 319 318 319 319 319 320 320 320 321 322 323 323 321 321 322 325 329 332 334 334 334 333 332 332 333 335 336 338 338 338 338 338 337 337 337 337 337 337 336 335 334 333 332 331 330 329 328 327 326 326 325 325 316 311 317 318 318 319 318 318 316 304 296 297 296 297 296
327 325 327 335 328 321 322 321 318 318 319 319 320 320 319 318 316 315 316 317 317 317 318 317 318 316 316 317 314 315 317 316 318 319 319 318 319 320 320 320 320 320 320 320 321 322 325 327 331 333 334 334 333 332 333 334 335 337 337 337 337 337 337 337 337 336 336 336 336 335 334 333 331 330 329 328 328 327 326 325 324 324 318 312 316 317 317 317 317 316 312 300 297 296 296 296 296
323 323 326 329 324 321 322 320 319 320 320 320 320 320 318 318 316 315 316 316 316 316 317 317 317 317 316 316 315 315 317 317 315 316 318 317 318 319 319 320 320 320 321 322 322 322 322 323 326 329 332 335 334 333 334 334 335 336 337 337 337 336 336 336 336 335 335 335 334 334 333 332 330 329 328 327 327 326 325 324 323 323 318 312 314 316 316 315 314 312 307 300 297 296 296 296 296
322 323 322 322 321 319 318 317 318 318 318 319 319 319 318 317 317 316 315 316 315 314 315 316 316 315 314 313 315 317 320 321 315 313 317 317 317 318 318 319 319 320 321 322 322 323 323 323 324 325 329 333 335 335 334 335 336 336 337 337 337 336 336 337 337 335 335 335 334 333 332 331 330 328 327 326 326 326 324 323 321 319 315 312 314 315 314 314 312 310 305 301 298 296 296 296 296
322 322 323 321 320 319 318 317 317 317 318 318 319 318 318 318 318 317 316 316 315 314 314 315 314 312 312 313 315 317 319 318 314 313 315 317 318 318 318 318 318 318 319 320 321 323 324 324 324 324 326 330 333 336 335 336 336 337 337 337 337 336 336 337 336 336 335 335 334 333 332 331 330 328 327 326 326 325 323 322 320 316 312 312 314 314 314 313 312 310 305 301 298 296 296 296 296
319 319 322 320 320 319 318 317 317 317 316 317 318 318 318 318 318 317 317 316 315 315 314 314 313 312 314 315 315 316 318 316 312 313 314 315 317 317 318 318 318 318 318 318 320 322 324 324 325 325 325 326 330 333 335 335 336 337 337 337 337 336 336 335 335 335 335 334 334 332 331 330 329 328 327 326 325 324 323 321 319 316 313 313 314 314 313 312 310 309 305 301 299 296 295 295 296
318 316 318 317 316 316 316 316 315 315 315 314 315 316 317 316 317 317 317 317 316 315 314 315 314 314 315 315 316 315 318 317 312 312 313 314 316 317 318 317 317 318 318 318 319 320 322 325 326 325 325 325 327 331 334 335 335 336 336 336 336 335 335 334 334 333 333 333 332 331 330 329 329 328 327 325 324 323 322 321 320 318 315 314 314 313 312 311 309 307 304 301 299 296 295 296 295
317 316 316 316 316 315 315 315 314 314 314 313 313 314 314 315 316 316 316 317 316 315 315 315 314 315 315 315 316 315 316 315 312 312 313 314 315 316 316 317 317 317 317 318 318 319 321 325 327 326 326 325 327 329 331 333 334 335 335 335 334 334 334 333 333 332 332 331 330 330 329 329 328 327 326 325 323 322 321 321 320 319 316 314 313 312 311 310 308 306 304 301 299 296 296 296 295
315 315 315 316 316 315 314 314 314 313 313 314 314 313 313 314 316 316 315 315 315 314 314 314 313 315 315 315 317 318 317 313 311 312 312 312 313 313 314 314 316 317 318 318 318 318 320 324 326 326 326 326 327 328 330 332 333 333 334 334 333 333 332 332 332 331 330 330 329 328 328 327 327 326 325 324 322 322 321 320 320 319 317 314 313 312 311 310 309 307 306 303 300 296 295 296 295
315 315 315 317 315 315 315 314 313 313 313 316 314 314 315 315 316 316 315 315 314 314 315 314 314 314 314 316 318 319 315 310 310 310 309 310 310 311 311 311 312 314 316 318 318 318 318 321 324 326 327 327 327 327 329 331 332 332 332 333 333 332 332 331 331 329 329 328 328 327 327 326 326 325 325 323 322 321 321 320 319 319 317 314 312 312 311 311 310 309 308 306 301 296 296 296 295
315 314 314 316 316 316 316 314 315 313 313 316 314 316 319 318 316 316 314 314 314 315 317 316 315 314 314 317 318 315 311 310 310 310 310 310 310 310 310 310 311 311 314 316 318 318 318 319 322 325 327 327 327 327 328 329 330 331 331 331 331 332 332 331 330 328 328 327 327 327 326 326 325 325 324 323 322 321 320 320 319 318 317 315 313 312 312 311 310 309 309 307 301 297 296 296 295
314 313 316 317 316 320 319 315 316 315 313 315 314 317 320 319 318 317 315 315 315 316 317 317 315 314 315 317 316 312 311 311 310 310 310 309 309 309 309 310 310 311 312 314 317 318 318 318 320 324 326 326 327 327 328 329 330 331 330 330 330 330 330 330 329 328 327 327 326 326 326 325 325 324 324 323 322 321 320 320 319 317 316 315 313 312 312 312 311 310 310 306 301 298 297 296 296
315 314 321 321 317 321 320 316 316 315 314 313 314 317 318 317 317 317 317 317 317 317 317 316 315 314 314 314 312 311 311 309 309 309 308 308 308 308 308 308 309 310 311 313 315 317 318 319 321 322 324 326 326 327 327 328 329 329 330 329 329 329 329 329 328 328 327 327 326 326 325 325 325 324 324 323 322 321 320 319 318 317 315 315 314 313 313 312 311 310 309 306 300 298 297 296 296
320 316 320 322 319 318 319 319 319 316 315 313 313 317 317 317 318 319 319 318 317 317 315 314 314 314 312 311 311 310 309 308 308 307 307 307 306 306 307 307 308 308 309 311 313 315 318 319 321 321 322 324 324 325 326 327 327 327 328 328 328 327 327 328 328 327 327 326 326 326 325 325 324 324 323 323 322 321 320 318 317 316 314 315 314 314 313 312 311 310 307 304 300 298 297 297 296
324 320 318 321 320 317 319 323 320 317 316 315 314 314 315 317 318 318 317 316 316 315 314 314 315 313 311 310 310 309 308 307 306 306 306 306 305 306 306 306 306 307 308 310 311 313 316 316 316 315 316 319 321 322 324 324 324 325 325 326 325 326 326 326 327 327 327 326 326 325 325 324 324 323 323 322 321 320 319 317 316 315 314 315 314 314 313 312 311 309 305 302 299 298 297 297 297
324 323 321 322 321 318 319 321 320 319 318 318 318 316 315 315 315 315 315 315 314 314 314 315 315 312 310 311 309 308 307 306 305 304 304 304 304 305 305 305 305 306 307 308 309 311 312 313 312 311 312 315 317 320 322 323 323 323 323 323 323 323 324 324 325 325 325 325 325 324 324 323 323 323 322 322 321 320 318 316 315 314 314 314 314 314 312 311 309 307 304 301 299 298 297 297 297
320 321 320 321 320 320 320 319 320 319 318 320 320 319 318 317 317 317 316 315 315 314 314 315 313 311 311 310 308 307 306 305 304 303 303 303 303 303 303 304 304 305 306 307 308 308 309 310 310 310 311 313 315 318 320 321 322 322 322 322 322 322 322 322 322 323 323 323 323 323 323 322 322 322 321 321 320 320 318 316 315 314 313 313 313 313 311 310 308 306 303 301 299 298 297 297 297
316 317 319 320 321 321 320 319 321 319 318 321 321 319 319 319 319 318 316 316 316 315 315 314 312 311 310 309 307 306 305 304 303 302 302 302 302 302 303 302 303 304 305 306 307 307 307 307 308 308 309 310 311 314 317 318 319 320 320 320 321 321 321 321 321 321 321 321 321 321 321 321 321 321 320 320 320 319 318 316 314 313 312 312 312 311 310 309 307 305 302 300 299 298 297 297 297
316 318 320 322 324 322 320 319 319 317 317 322 323 319 319 319 318 317 316 315 314 315 314 312 311 310 308 307 306 305 305 304 303 302 302 301 302 302 302 302 302 302 303 304 305 305 305 306 305 306 307 307 308 309 311 313 314 317 317 318 318 319 319 319 319 319 319 319 319 319 319 319 319 319 319 318 318 318 317 317 314 313 312 311 311 310 309 308 306 304 301 299 298 297 297 297 296
319 322 321 323 324 322 323 322 319 316 317 323 324 319 318 318 317 316 315 314 312 313 313 311 309 309 307 306 305 304 304 303 302 302 301 301 301 301 301 301 301 301 301 301 302 303 303 303 303 304 305 306 306 307 307 308 309 312 313 313 314 315 315 315 317 317 317 318 318 318 318 318 317 317 317 316 316 316 316 316 314 312 311 309 309 308 308 306 305 303 301 299 298 297 297 296 296
322 322 321 323 323 321 325 326 321 318 317 321 321 319 320 318 317 317 314 312 311 310 310 309 308 307 306 305 304 304 303 303 302 301 300 300 300 300 300 300 301 300 300 300 300 300 300 301 301 302 303 304 305 305 306 306 307 308 309 309 309 310 310 310 311 312 313 313 314 315 316 316 316 315 315 314 314 314 314 314 313 312 310 308 307 307 306 305 304 303 301 299 298 296 296 296 296
326 326 323 323 323 321 322 323 322 321 323 324 319 323 329 322 318 318 313 310 311 309 308 308 307 306 305 305 304 303 303 302 301 301 300 299 299 299 299 299 300 300 300 300 299 299 299 300 300 301 302 303 303 304 305 305 306 306 306 306 306 307 307 306 306 306 307 308 309 310 311 312 313 313 313 313 313 312 312 313 312 311 309 307 306 305 305 305 304 302 301 299 297 296 296 296 296
327 329 326 323 323 323 324 325 325 324 327 326 318 325 336 328 321 321 314 310 311 309 308 307 306 306 305 304 303 303 302 302 301 300 299 298 298 298 298 298 299 299 299 299 299 299 299 299 299 300 300 301 302 303 303 304 304 304 305 305 304 304 304 304 304 304 304 305 306 308 308 309 309 309 310 310 310 310 310 311 311 310 309 307 305 304 303 303 303 302 301 299 297 297 296 295 296
324 328 327 326 324 322 325 325 324 325 327 324 317 323 330 324 321 323 316 310 310 309 308 307 306 305 304 303 303 302 302 301 301 300 299 298 298 297 297 298 298 298 298 298 298 298 298 298 298 299 299 300 300 301 302 302 302 303 303 303 303 303 303 303 303 304 304 304 305 306 307 307 306 306 306 306 307 308 308 309 309 309 308 307 305 303 302 302 302 302 300 299 298 297 296 295 296
327 326 325 327 323 321 323 319 320 326 324 321 319 319 322 321 321 319 315 311 311 309 308 307 305 304 303 303 302 302 301 301 301 300 299 297 297 297 296 297 297 297 297 297 297 297 297 298 298 298 298 298 299 299 300 300 300 301 301 301 301 301 302 302 302 303 303 303 303 304 304 305 305 304 304 304 304 305 305 306 306 307 307 307 306 303 302 301 301 301 300 299 298 297 296 295 295
329 324 320 322 319 319 321 318 321 323 320 322 324 318 319 326 326 317 313 313 311 309 308 306 305 304 303 302 302 301 301 301 300 300 299 297 297 297 296 296 296 296 296 296 296 296 297 297 297 298 297 297 298 298 299 299 299 299 299 299 300 300 300 301 301 301 301 302 302 302 302 303 303 303 304 303 303 303 303 303 304 304 305 305 305 304 302 301 300 300 299 299 298 297 297 296 295
324 320 319 323 321 319 319 317 320 320 319 324 326 320 319 329 331 318 314 316 312 309 308 305 305 304 303 302 302 301 301 300 300 298 297 296 296 296 295 295 295 295 295 295 295 295 295 296 296 297 297 297 297 297 298 298 298 298 298 298 298 298 299 299 299 299 300 300 300 301 301 301 301 302 302 302 302 302 302 301 301 302 302 303 304 304 303 302 300 300 299 298 298 297 297 296 295
320 319 322 326 326 323 321 322 322 319 323 329 326 322 319 326 332 319 314 317 311 308 306 304 304 303 302 302 301 301 300 300 299 297 296 296 296 295 295 295 294 294 295 295 295 295 294 295 295 295 296 296 296 297 297 297 297 297 297 297 297 297 297 297 298 298 298 298 298 299 299 299 300 300 300 301 301 301 301 301 301 300 301 301 301 302 302 302 301 300 299 298 298 297 297 296 296
320 323 324 324 327 327 322 324 325 321 328 335 328 322 318 324 330 318 312 314 309 307 306 304 303 303 302 301 301 300 300 299 299 298 296 295 295 295 294 294 294 293 294 294 294 294 293 293 294 295 295 295 295 295 296 296 296 296 296 296 296 296 296 296 296 296 296 297 297 297 298 298 299 299 299 299 299 299 299 300 300 300 300 300 300 300 300 300 301 301 300 299 298 297 297 297 296
321 323 320 320 325 328 325 325 325 324 329 332 325 321 320 323 323 313 309 310 308 307 305 303 303 302 302 301 300 300 299 298 298 297 297 294 293 294 294 293 293 292 292 292 293 293 292 292 292 293 294 293 293 293 293 293 294 295 295 295 295 295 295 295 295 295 295 295 295 296 296 296 297 297 297 297 297 297 298 298 299 299 299 299 299 299 299 299 299 299 300 300 299 298 297 296 296
317 319 321 323 324 324 325 325 321 320 324 326 319 316 322 325 315 308 307 306 305 305 303 303 302 301 301 301 300 300 299 299 298 297 297 294 293 293 293 293 292 292 291 291 291 291 291 291 291 291 292 292 291 290 291 291 291 291 292 293 293 293 293 294 294 294 294 295 295 295 295 295 295 295 295 296 296 296 297 297 298 298 299 299 299 299 298 298 298 298 298 299 299 299 298 297 296
315 321 324 325 329 325 323 322 319 320 325 326 319 316 325 328 314 306 305 303 303 303 302 303 302 301 301 300 300 300 299 299 298 297 295 292 292 292 292 292 292 291 291 290 290 290 290 290 289 290 290 289 289 288 288 288 288 288 288 289 289 289 290 290 290 291 291 292 292 293 293 294 294 294 295 295 295 295 296 296 297 297 298 298 298 298 298 297 297 297 297 298 298 298 298 297 296
318 320 320 323 329 326 322 322 321 321 324 325 323 322 321 317 309 304 304 303 303 303 302 302 302 301 301 301 300 300 299 299 298 297 295 292 292 292 291 292 292 292 291 289 289 289 289 288 288 288 288 288 288 287 287 287 287 287 286 286 286 287 287 287 287 287 288 288 288 289 289 290 291 292 293 294 295 295 295 295 295 296 296 297 297 297 297 296 296 296 296 297 297 297 297 297 297
321 319 323 327 326 322 322 324 321 318 320 321 322 322 315 310 308 305 304 304 303 303 302 302 302 302 302 301 301 300 299 299 298 297 294 292 291 291 291 291 291 292 291 290 288 288 287 287 287 287 287 287 287 287 287 287 287 287 286 286 286 286 286 286 286 286 286 286 286 286 286 287 287 288 289 290 291 293 294 294 295 295 295 295 295 295 295 295 295 295 296 296 296 296 296 297 297
321 321 325 325 320 320 322 323 321 319 320 319 318 318 315 315 315 307 304 306 304 303 303 302 302 302 302 302 301 300 299 298 298 296 293 291 291 291 291 291 291 291 292 290 288 287 287 287 287 287 287 287 287 287 287 287 287 287 286 286 286 286 286 286 286 286 286 286 286 286 286 286 286 286 286 286 287 288 290 291 293 294 294 294 294 294 294 294 294 295 295 295 295 295 295 296 296
320 321 322 318 319 324 322 321 323 321 319 320 321 320 318 318 316 307 305 306 305 304 303 303 302 302 302 302 301 300 299 298 297 296 294 291 290 290 290 290 290 290 291 290 288 288 288 288 287 287 287 287 287 287 287 287 287 287 287 287 287 287 287 287 287 287 287 287 287 287 287 287 287 286 286 286 286 286 286 287 288 290 292 293 294 294 293 293 293 293 294 294 294 294 295 295 295
317 319 319 319 320 322 320 320 324 322 318 319 320 320 320 320 315 308 306 305 304 304 304 303 303 302 301 301 301 300 300 298 297 296 294 291 290 290 290 289 289 289 290 290 289 289 289 289 289 289 289 288 288 288 288 288 288 288 288 288 288 288 288 287 288 288 288 287 287 287 287 287 287 287 287 287 287 286 286 286 286 286 287 289 291 293 293 293 292 292 292 293 293 294 294 294 294
317 318 318 318 319 320 318 318 321 321 320 319 318 318 320 317 312 307 305 305 304 304 304 304 303 302 301 301 301 300 299 297 297 296 294 291 290 290 289 289 290 290 290 290 290 290 290 290 290 290 290 289 289 289 289 288 288 288 288 288 288 288 288 288 288 288 287 288 287 287 287 287 287 287 287 287 287 287 287 287 286 286 286 286 287 288 291 292 293 292 292 292 292 292 293 293 293
321 321 320 320 319 318 318 318 319 319 318 318 317 319 320 315 309 307 306 305 305 304 304 305 303 301 300 300 299 298 297 296 296 295 293 292 291 291 291 290 290 290 291 291 291 291 291 291 290 290 290 290 289 289 289 289 288 288 288 288 288 288 288 288 288 288 287 287 287 287 287 287 287 287 287 287 287 287 287 287 287 287 287 286 286 286 287 289 291 292 292 292 291 291 292 292 292
Wind_Speed
9 9 7 7 9 11 10 2 3 3 3 1 4 1 3 2 1 3 3 2 2 1 2 2 1 1 1 2 5 5 5 5 4 3 3 5 5 11 17 15 14 17 19 20 23 27 30 28 26 25 24 24 23 22 21 20 19 17 17 17 17 16 15 14 13 13 12 11 10 9 9 9 9 9 9 9 9 9 9 9 9 8 8 8 7 7 7 7 5 7 7 6 4 3 3 2 3
8 8 6 7 7 4 3 3 4 3 5 3 4 1 2 3 4 3 4 3 2 4 3 3 1 0 1 1 3 1 4 7 5 3 2 3 7 13 17 13 14 17 19 20 22 27 30 29 27 26 25 24 23 22 21 20 19 18 18 18 17 16 15 14 13 13 12 11 10 10 10 9 10 10 10 10 9 8 9 9 9 8 8 8 7 6 6 5 3 4 5 3 2 1 2 2 2
7 7 8 8 5 1 1 3 3 1 4 1 4 3 1 4 3 4 5 5 6 5 2 2 1 0 2 3 1 3 3 4 3 3 1 5 6 10 16 15 15 15 17 19 21 27 31 29 28 26 25 25 24 22 22 20 19 18 18 19 17 16 16 15 13 13 12 12 11 11 11 10 11 11 10 10 10 8 8 9 8 8 7 7 6 6 5 3 2 3 3 2 1 2 4 5 5
7 6 9 7 4 2 3 3 2 3 1 1 1 4 2 4 3 4 5 6 7 4 2 0 1 1 2 0 2 2 3 3 2 4 3 7 6 8 15 16 16 16 16 17 20 26 30 30 28 27 26 26 25 23 22 21 20 18 19 19 18 17 17 15 14 14 13 12 12 11 12 11 12 12 11 10 10 9 9 9 9 8 7 6 4 5 4 2 1 2 1 1 2 3 5 6 7
7 7 7 3 3 2 2 2 0 3 2 3 3 3 0 4 2 1 2 3 5 5 4 2 0 3 0 3 2 2 4 1 1 6 7 9 7 7 13 17 18 17 16 15 18 24 29 30 28 27 26 26 24 24 23 22 21 19 19 19 19 18 17 16 15 14 13 13 12 12 12 13 12 12 11 10 10 10 9 10 9 8 8 8 5 3 2 1 1 2 1 1 2 4 6 7 8
8 8 4 0 1 1 2 1 1 1 5 4 3 4 2 3 3 2 5 2 1 2 4 2 0 1 1 3 2 3 4 2 2 6 8 9 8 8 13 17 19 19 17 15 16 22 28 30 28 28 26 25 24 23 24 23 22 20 20 20 19 19 17 17 15 14 14 13 13 13 13 13 13 12 11 10 10 10 9 10 8 6 8 10 8 5 3 1 1 1 2 2 3 5 7 7 7
8 7 2 2 2 1 4 1 3 3 5 4 5 3 2 3 4 4 5 2 2 3 2 1 2 2 2 3 2 3 1 3 4 6 7 8 8 9 13 17 20 20 17 15 15 19 25 29 29 27 26 25 24 24 24 23 22 21 20 20 20 19 18 17 16 15 15 14 14 14 14 14 13 13 12 11 11 10 8 9 8 6 8 9 8 7 4 2 2 2 2 2 3 6 7 6 6
5 2 1 4 2 2 2 2 4 4 4 3 5 3 3 3 5 4 3 1 1 1 1 2 4 3 4 2 1 4 2 3 5 8 8 7 8 9 13 17 20 21 19 15 15 16 21 27 29 28 27 26 25 24 24 23 22 21 21 20 20 19 18 17 16 15 15 15 15 15 15 14 13 14 14 12 11 9 6 8 8 7 7 7 7 7 5 4 4 4 4 3 4 7 7 6 4
2 1 2 3 2 2 2 3 4 3 4 3 1 3 4 4 4 3 2 3 2 2 2 5 5 3 4 5 3 4 2 5 7 9 9 7 9 9 13 17 18 21 20 17 15 16 18 23 28 28 27 26 25 25 24 23 22 21 20 20 20 19 19 18 17 16 16 16 16 16 15 15 14 13 13 11 10 8 7 8 8 8 7 5 6 6 6 6 5 5 4 4 5 7 6 5 3
2 1 2 2 2 3 4 3 3 3 5 3 1 3 5 4 3 3 0 4 3 1 3 4 4 1 3 3 4 4 1 7 9 10 10 9 9 10 12 15 17 19 20 20 18 17 17 19 25 28 28 26 26 25 24 23 22 21 20 19 19 19 19 19 18 18 18 17 17 16 16 15 14 13 13 11 10 9 9 9 9 10 7 7 7 6 5 6 6 6 5 5 6 7 4 3 2
2 2 2 3 3 2 3 4 4 5 6 3 2 2 3 5 4 2 2 4 3 0 2 1 1 3 1 2 5 3 4 9 9 10 10 10 10 10 11 13 16 18 18 20 20 18 18 18 21 26 28 27 26 26 25 24 23 22 21 20 20 19 19 19 20 20 19 19 18 17 16 15 14 14 13 12 11 11 10 9 9 8 7 8 8 7 6 6 7 6 6 6 6 5 2 2 3
2 4 3 3 0 2 3 3 6 6 6 3 2 4 0 5 4 1 3 3 3 4 2 3 1 2 0 3 4 2 6 10 10 9 10 11 10 10 11 13 15 17 17 19 21 20 19 19 20 23 26 27 27 26 26 25 24 23 21 21 20 20 20 20 20 21 20 20 19 17 17 16 15 15 14 13 13 12 11 11 9 8 9 8 8 8 7 8 7 7 7 6 4 2 2 3 5
2 1 5 1 3 2 3 3 5 5 6 2 1 4 0 4 2 4 2 3 4 6 3 5 1 2 2 4 3 2 5 9 10 9 10 9 10 10 11 13 15 17 17 18 21 21 20 20 22 23 25 26 27 27 27 26 25 23 22 21 21 21 20 20 20 21 21 20 19 19 18 18 17 16 15 14 14 13 12 11 9 8 10 9 9 9 8 8 8 8 8 4 2 2 4 5 6
0 1 4 1 2 2 3 2 4 2 3 4 2 3 1 1 4 5 2 4 6 2 3 6 3 2 3 3 4 4 6 11 11 10 9 8 10 11 10 13 15 17 17 19 20 21 20 21 22 24 25 26 27 28 27 27 26 25 24 23 22 21 21 21 21 21 21 21 21 20 20 18 17 16 15 15 14 13 12 11 9 9 10 10 9 9 9 9 8 9 7 4 2 3 5 6 6
1 0 4 1 3 4 2 3 3 2 3 5 3 2 1 2 4 4 4 4 7 5 2 3 3 2 4 3 3 6 7 14 14 11 10 9 9 12 11 11 14 17 18 20 20 20 21 21 22 24 25 26 28 29 29 28 27 26 26 25 24 22 21 21 21 21 21 21 21 21 21 19 17 16 15 15 14 14 13 12 10 9 11 11 10 10 9 9 9 9 7 5 3 4 6 7 7
2 2 4 1 2 2 2 3 1 1 4 5 3 1 2 5 1 2 4 3 4 5 1 3 3 3 5 4 9 12 7 12 15 13 12 10 9 12 12 11 12 16 18 20 21 21 21 22 22 24 26 27 28 30 30 30 28 27 26 26 25 23 23 23 22 22 22 22 22 21 20 19 18 16 16 15 15 15 14 14 12 11 13 12 11 11 10 10 9 9 7 6 4 5 6 7 7
3 4 4 1 2 2 3 2 1 0 5 5 4 1 3 5 4 0 3 0 4 6 5 5 4 4 6 9 18 18 9 13 15 13 12 11 10 11 13 13 13 16 18 20 22 22 21 22 24 25 26 28 29 30 31 31 30 29 27 27 25 24 24 24 24 23 23 23 22 22 20 20 19 17 17 17 16 16 16 15 13 12 14 13 12 12 11 11 10 10 8 7 5 6 6 7 7
4 3 3 2 3 3 5 3 2 1 3 5 4 0 4 2 5 2 3 3 4 6 8 7 5 7 11 19 21 14 9 14 15 14 13 12 11 11 14 16 15 17 19 21 23 25 24 24 25 25 26 28 29 31 32 33 31 30 29 28 27 26 26 25 26 25 25 24 23 22 21 21 20 19 18 18 18 17 17 16 15 14 14 14 14 13 12 12 11 10 9 8 6 6 7 8 8
3 3 2 3 5 5 4 3 5 3 4 6 5 3 5 1 4 2 3 7 6 6 9 7 9 10 11 18 15 9 13 16 16 16 14 14 14 14 15 16 18 19 20 22 23 26 28 27 27 27 27 27 29 31 33 34 33 31 30 30 29 28 27 27 27 27 27 26 25 24 23 22 21 20 19 20 19 19 18 18 17 16 14 15 15 15 14 14 12 10 10 8 7 8 8 9 9
2 3 2 6 6 5 7 6 6 5 4 5 5 3 4 5 3 1 4 9 7 7 9 7 11 12 9 11 7 8 15 15 16 16 14 16 17 17 17 17 19 21 21 21 22 25 28 29 29 28 28 27 28 31 33 34 34 33 32 31 31 30 29 29 29 29 28 28 27 26 25 23 22 21 21 21 21 20 19 19 18 17 16 16 16 17 16 15 13 12 11 9 8 9 9 9 10
1 4 5 7 5 4 8 7 8 7 4 4 5 5 6 6 2 2 5 8 8 8 9 9 13 15 10 9 8 7 12 13 15 15 15 17 17 19 19 19 20 20 20 20 22 24 26 29 30 30 29 28 28 30 32 34 34 34 34 33 32 32 31 31 30 30 29 29 28 27 26 24 23 22 22 22 22 22 21 20 20 18 18 17 18 19 18 17 15 14 13 10 9 10 10 10 10
2 4 7 7 4 4 7 6 7 6 5 5 6 6 5 4 2 3 4 7 10 9 8 10 13 14 11 9 10 7 8 10 12 14 16 18 19 20 21 21 20 19 19 21 24 24 25 26 29 30 30 30 29 30 32 33 34 35 35 34 34 33 33 33 32 32 31 31 30 29 27 25 24 24 23 23 23 23 22 22 21 20 20 20 20 20 20 20 18 16 14 11 11 11 10 11 11
3 5 5 7 7 6 6 5 6 6 5 5 4 4 3 4 6 5 6 11 15 13 10 10 11 14 14 9 8 8 7 8 10 14 18 20 21 22 23 22 21 20 20 22 23 23 24 25 26 29 31 32 31 30 32 33 34 35 35 35 35 35 35 35 34 34 33 33 32 31 29 27 26 25 25 24 24 24 23 23 22 21 21 22 22 22 22 21 20 18 15 12 12 12 11 12 12
6 5 5 7 7 6 5 5 7 6 6 7 4 5 4 5 7 3 6 13 16 16 12 10 12 15 14 10 9 9 10 10 11 15 19 22 25 25 24 22 21 21 21 22 23 24 25 24 25 27 30 32 33 32 32 33 33 34 34 34 34 35 35 35 35 35 34 34 33 33 32 30 29 28 27 27 26 26 25 24 22 22 22 23 23 23 23 22 21 19 17 14 14 14 13 13 13
5 5 4 3 4 5 7 6 7 8 7 7 6 9 9 8 5 5 11 16 17 17 13 11 11 11 12 11 11 9 9 10 12 15 15 20 25 24 22 21 20 20 21 22 23 24 25 24 25 26 28 31 34 33 33 33 33 33 33 33 34 34 35 35 34 34 34 33 33 33 33 33 32 30 30 29 28 27 27 25 24 23 23 24 24 25 24 23 22 20 18 16 16 16 15 15 13
4 2 3 3 4 6 7 7 9 10 7 6 6 11 12 6 3 8 13 16 15 13 11 11 9 8 10 10 11 9 8 8 10 13 13 16 19 20 21 20 19 19 20 22 22 23 24 24 25 25 26 28 32 34 34 34 34 34 34 34 34 33 34 34 33 33 33 33 33 33 33 33 33 32 31 30 29 29 28 26 25 24 24 24 26 26 26 24 23 21 20 18 18 18 17 16 15
2 4 5 5 6 7 6 7 13 11 8 9 8 12 14 3 2 6 10 13 11 9 10 10 8 8 8 8 9 6 5 9 13 13 11 10 9 11 12 12 16 18 18 19 20 21 22 23 24 24 24 26 29 33 35 35 35 35 35 34 33 33 33 32 31 32 32 32 32 32 32 32 32 32 31 31 30 29 28 27 26 25 25 25 26 27 26 25 24 22 20 18 19 20 18 16 15
3 3 6 8 8 8 8 10 14 9 5 9 9 10 13 1 4 10 14 13 9 8 12 12 9 9 7 5 7 6 6 10 13 11 10 11 12 11 14 14 10 11 14 16 17 18 20 21 23 23 23 25 27 30 33 34 34 34 34 33 32 32 31 30 30 31 32 32 31 30 30 30 31 31 31 31 31 30 29 28 27 27 26 26 26 27 26 25 24 22 20 18 19 19 18 17 16
4 3 5 9 7 8 13 11 12 7 4 6 8 3 9 4 8 13 14 13 9 9 12 12 10 8 5 5 6 6 7 13 20 20 17 19 23 25 26 25 21 15 9 11 13 14 16 18 20 22 22 23 25 27 29 32 32 32 32 32 31 30 29 29 29 30 31 30 30 30 29 29 30 31 31 30 30 30 29 29 28 28 27 26 26 26 26 25 24 23 21 19 19 20 20 18 17
5 3 0 5 6 7 12 8 7 6 4 6 9 1 6 9 13 13 12 9 6 8 9 9 9 5 5 5 6 7 11 16 18 20 22 24 26 28 28 26 25 23 16 7 6 9 11 13 16 18 20 22 23 24 27 28 29 29 29 29 29 29 29 28 28 29 29 28 28 29 28 28 29 30 30 30 30 30 29 29 29 29 28 27 26 26 26 26 26 25 23 21 21 21 21 20 19
4 4 0 2 2 6 10 6 4 3 3 5 9 4 6 9 12 11 10 7 5 7 9 9 8 5 5 6 7 10 11 14 18 22 25 25 26 29 30 29 27 25 22 16 10 6 6 7 10 13 16 18 20 21 24 25 26 26 25 25 25 26 27 27 27 27 27 26 27 27 27 28 29 30 30 30 31 30 30 29 29 29 29 28 27 27 27 27 27 27 26 24 23 22 22 21 21
2 2 3 2 4 5 10 9 5 4 3 1 6 4 5 8 11 11 10 8 7 9 12 10 7 7 7 6 8 9 8 15 22 26 26 26 28 30 31 31 30 28 27 24 18 12 7 3 2 5 7 12 15 17 20 21 22 22 22 22 21 21 23 25 25 25 25 25 25 25 26 27 28 29 30 30 31 31 30 30 30 30 30 30 29 29 29 29 29 29 28 27 26 25 24 23 22
2 3 4 4 4 3 6 7 4 4 3 2 2 3 4 5 8 10 10 9 8 10 13 10 7 8 7 8 9 8 8 13 18 24 26 27 29 31 32 32 31 30 30 28 24 20 16 11 7 5 3 3 6 10 14 16 16 17 18 18 18 18 19 21 23 23 23 23 23 23 25 26 27 28 30 31 31 31 30 30 30 30 31 31 31 31 31 31 31 30 29 28 28 27 26 25 24
3 2 4 5 5 4 3 6 5 3 5 2 5 4 6 7 8 10 11 11 10 10 11 10 7 6 8 9 9 9 10 12 13 19 24 27 30 33 32 32 31 31 32 31 29 25 21 17 15 14 12 8 6 3 5 9 8 9 12 13 13 13 14 17 20 21 22 23 23 23 23 24 26 27 29 30 30 30 30 30 30 30 31 32 32 32 32 32 31 31 30 29 29 29 29 28 27
4 4 4 4 5 4 4 5 5 2 1 3 5 6 8 9 9 10 12 12 11 8 6 7 5 8 10 9 10 10 11 12 12 17 23 27 30 32 32 32 32 32 32 33 32 29 25 22 20 18 16 13 11 8 3 2 3 3 5 7 7 8 9 11 14 17 18 20 22 22 22 23 24 26 28 29 30 30 29 29 30 31 32 33 33 33 33 33 32 31 31 31 31 30 30 30 29
8 7 5 5 5 5 6 6 5 4 4 5 7 8 7 7 9 10 13 11 6 5 4 3 5 10 9 9 10 9 12 11 12 19 25 28 30 30 31 31 32 33 33 33 33 32 29 25 22 20 18 15 12 10 7 4 2 1 1 2 3 4 5 7 9 12 14 16 18 19 20 21 23 24 26 28 29 30 29 30 30 31 33 34 35 35 35 35 34 34 34 33 33 31 29 28 28
7 6 6 6 5 5 6 6 6 3 2 6 7 5 6 7 9 12 15 10 7 7 4 6 8 9 8 10 10 10 11 9 13 22 26 29 30 30 30 31 33 34 34 33 32 31 29 26 25 23 20 17 16 14 11 8 6 5 4 3 3 3 4 6 7 8 10 12 14 15 17 19 21 22 24 26 28 30 30 31 31 32 33 34 36 37 37 36 36 36 34 33 33 32 30 28 28
6 6 5 5 5 5 6 6 7 3 1 5 4 5 7 8 10 15 15 10 10 7 5 10 10 10 9 10 10 10 9 8 13 19 24 28 28 29 30 32 33 34 33 32 31 29 27 25 25 24 21 19 19 17 14 12 11 8 6 6 5 4 4 5 6 8 9 11 13 14 15 17 19 20 22 23 26 28 31 32 33 33 34 35 36 36 36 36 36 36 34 33 33 33 32 31 32
6 5 4 4 4 3 5 5 4 3 1 5 5 5 7 9 11 16 14 7 7 7 10 10 10 11 9 9 9 9 9 10 12 14 19 24 26 28 29 30 31 31 32 32 30 29 28 27 25 24 22 20 19 17 15 14 12 10 9 9 8 6 6 5 4 5 7 9 11 13 14 15 16 17 19 21 23 26 29 32 33 34 34 35 35 36 36 36 36 36 35 34 32 32 31 31 35
5 5 4 5 4 1 4 5 4 3 2 3 4 5 6 7 11 11 7 7 9 11 14 12 10 11 10 9 9 9 10 10 11 11 14 19 23 26 28 28 29 30 32 32 31 30 30 29 27 25 23 22 20 18 16 13 10 10 9 10 10 10 10 9 7 6 6 8 10 11 13 14 15 16 17 18 21 24 27 30 32 33 34 34 35 35 36 37 37 36 36 36 34 30 28 29 36
4 5 4 5 5 4 5 4 5 5 4 1 2 5 4 6 10 6 6 10 9 10 13 13 10 9 10 10 10 10 9 9 10 10 10 15 20 23 25 26 27 30 30 30 31 30 30 30 29 28 26 24 22 20 17 13 11 10 10 10 11 12 12 13 13 13 12 11 10 10 11 12 13 15 16 17 19 21 24 27 30 32 33 33 33 34 36 37 37 37 37 38 36 32 30 30 34
4 4 7 8 7 6 4 2 4 4 4 3 3 4 5 5 6 5 4 8 8 7 10 11 8 8 8 9 10 8 8 8 8 9 9 12 16 20 24 26 28 29 29 29 30 30 30 30 30 29 28 26 24 22 19 16 15 14 14 15 16 16 15 16 16 16 15 14 10 8 8 9 11 12 14 16 18 19 21 24 27 30 31 32 32 32 34 36 36 37 38 38 38 37 33 27 30
3 4 5 5 5 3 1 3 3 1 2 4 2 2 6 4 5 7 5 10 7 7 8 8 7 7 7 8 7 7 7 7 7 9 9 12 15 18 21 24 26 27 28 29 30 31 32 31 31 30 29 28 25 23 21 19 18 17 17 17 18 17 16 15 14 13 14 13 12 8 6 7 8 9 11 13 14 17 19 21 23 26 28 30 30 31 32 34 35 36 37 38 39 39 36 29 29
3 5 3 6 5 4 3 2 1 3 2 5 1 4 4 4 6 6 7 11 6 6 7 6 6 7 7 7 6 6 6 6 7 8 8 11 15 17 19 22 25 26 27 29 30 31 31 31 31 31 30 29 26 25 23 22 22 21 19 19 19 18 17 16 14 12 12 12 12 11 8 8 8 9 9 10 11 13 16 18 20 22 25 27 29 29 30 31 34 35 36 37 38 38 38 34 31
6 5 5 6 5 5 3 3 2 3 1 5 5 4 2 5 5 2 9 9 5 6 6 6 6 6 7 7 6 6 6 6 6 7 8 11 15 17 18 21 24 26 27 28 29 29 30 30 31 31 31 30 29 27 26 24 22 22 22 22 21 20 18 17 15 14 14 13 12 12 12 10 9 10 10 10 10 11 12 14 16 19 21 24 26 28 28 29 31 34 35 36 37 38 39 37 34
4 3 4 4 2 2 1 3 3 1 1 4 6 4 3 5 5 1 6 6 6 6 5 5 6 5 6 6 5 5 5 5 5 7 10 13 16 17 18 21 24 25 26 26 27 27 28 28 29 31 31 31 30 29 27 26 24 23 23 23 23 23 21 19 18 18 18 17 16 15 15 13 12 11 10 11 11 11 12 12 13 15 17 19 23 26 27 28 28 31 33 35 36 37 39 39 37
3 5 4 6 4 3 3 2 4 3 2 6 8 8 6 3 4 2 2 4 9 10 7 6 5 6 5 4 5 5 4 5 5 7 10 15 18 19 20 22 24 24 25 25 26 26 26 26 27 29 30 30 30 29 28 27 26 25 25 24 24 23 22 22 22 23 22 21 20 19 18 16 15 14 13 11 11 12 13 14 14 14 14 15 18 21 24 27 28 29 30 33 35 36 37 39 39
5 5 4 4 5 4 4 4 3 2 4 7 7 7 7 5 4 2 4 1 9 11 10 11 8 6 5 4 4 4 4 5 5 6 8 13 16 19 21 22 23 24 24 24 24 24 25 25 25 26 27 27 27 27 27 27 26 26 26 25 25 24 24 24 25 25 24 23 23 21 20 19 17 16 16 15 13 12 12 14 15 16 15 14 14 16 19 22 26 28 29 31 33 34 35 36 37
5 4 4 2 3 3 2 2 0 2 6 6 3 3 4 5 3 3 6 4 6 7 8 11 10 8 6 4 4 4 4 5 6 6 6 8 11 15 17 18 20 22 22 22 22 23 24 24 24 24 24 23 24 25 25 25 26 26 26 27 27 26 26 27 27 26 25 24 23 22 22 22 20 19 19 18 17 15 14 12 13 15 16 15 14 14 15 18 21 25 27 29 31 32 34 35 36
4 4 4 4 2 1 2 3 2 3 5 5 2 2 1 4 1 4 5 5 6 8 9 8 8 8 6 5 4 5 5 5 6 6 5 6 9 12 13 15 17 19 20 21 21 21 22 22 22 22 21 22 23 23 23 24 25 26 26 27 27 27 28 28 28 28 26 25 25 24 24 23 22 22 21 20 19 18 16 14 12 12 14 15 15 15 15 17 19 22 25 27 29 31 32 34 35
5 5 5 5 4 4 3 4 3 3 4 5 3 1 2 3 1 3 4 5 6 8 8 7 7 6 5 5 5 5 5 5 5 5 5 7 10 12 13 14 16 17 19 20 20 19 18 18 19 20 21 22 22 22 23 23 24 26 26 27 27 27 27 28 27 27 26 26 26 25 25 25 24 24 23 22 21 20 18 16 13 11 11 14 15 16 17 18 19 21 23 25 27 29 30 33 33
3 3 4 2 4 5 2 4 5 3 3 4 2 2 1 2 2 3 4 5 7 7 6 7 6 5 5 5 4 4 4 4 4 4 5 7 10 11 12 13 13 15 17 18 17 16 16 17 18 20 21 20 21 21 22 23 24 25 27 27 27 27 27 27 27 26 26 25 25 25 26 26 25 25 25 25 24 22 21 19 16 13 11 12 13 15 17 19 20 21 23 24 26 27 29 32 33
1 3 3 4 3 5 2 3 1 2 2 4 3 2 1 2 1 2 4 5 6 5 5 6 5 5 5 4 4 4 4 4 4 4 4 6 9 10 10 10 11 13 14 15 14 14 16 18 19 20 20 20 20 21 22 23 24 25 25 26 26 26 27 27 27 26 26 25 25 25 25 25 26 26 26 26 26 25 24 22 20 17 15 14 14 15 16 17 19 21 22 24 25 26 28 30 32
4 2 4 3 1 3 3 0 2 1 4 4 2 4 3 2 2 1 3 4 5 5 5 5 5 5 4 4 4 4 4 4 4 4 5 7 8 8 8 9 10 11 11 11 12 14 16 17 18 19 19 19 19 20 21 21 22 22 23 23 24 25 25 25 25 25 25 25 26 25 25 25 26 26 26 26 27 27 26 25 24 22 19 17 16 16 16 17 17 19 21 22 24 25 27 30 31
4 3 3 1 1 2 1 1 2 3 5 4 5 6 5 4 4 5 7 8 8 7 5 5 5 5 5 4 5 5 4 4 4 4 4 4 6 6 7 8 9 9 8 9 9 11 14 15 16 16 16 16 16 17 18 18 19 19 19 20 21 22 23 23 23 24 24 25 26 26 26 26 26 26 26 26 26 27 27 27 26 26 24 22 20 18 17 17 18 19 20 21 22 23 26 28 29
2 1 2 1 3 3 2 2 3 3 4 4 5 6 4 4 5 10 12 11 10 9 6 6 7 6 6 5 5 5 4 4 3 3 3 3 4 5 6 7 8 8 7 7 7 8 10 11 12 12 13 13 14 15 16 16 16 16 17 18 19 19 20 20 21 22 23 24 25 26 27 27 28 28 28 27 27 26 26 26 26 26 26 26 24 22 20 18 18 19 20 21 22 23 25 27 28
2 1 1 1 1 1 2 2 3 3 4 4 5 6 5 3 3 10 13 11 10 10 8 7 7 7 6 6 5 5 4 4 3 3 3 3 3 3 4 4 4 5 5 5 5 7 7 8 9 9 10 11 12 13 14 15 15 16 16 16 17 17 17 18 19 20 21 22 22 24 25 25 26 27 28 28 28 28 27 26 25 25 26 26 26 26 24 22 20 20 20 21 22 23 25 26 27
4 3 3 2 2 1 2 4 2 2 3 3 4 6 5 2 1 5 9 9 9 9 9 8 7 7 7 5 5 5 4 4 4 3 3 2 1 1 0 1 1 2 3 4 5 6 7 8 8 9 10 11 11 12 13 14 14 15 15 14 15 15 15 17 18 18 19 20 20 22 22 23 24 26 26 27 27 27 28 27 26 26 25 25 25 25 25 25 24 23 22 22 22 23 24 26 27
Wind_Direction
335 328 340 356 339 332 326 46 69 321 81 345 283 158 269 265 122 69 60 45 41 278 218 223 249 152 190 190 192 199 202 194 184 148 210 227 154 166 173 175 188 190 189 184 185 187 186 186 185 180 177 174 173 176 177 178 180 180 176 170 169 168 167 168 167 165 163 161 165 166 166 166 162 159 152 143 137 140 143 142 139 139 138 132 130 129 125 123 143 151 129 116 123 120 113 82 54
344 339 350 343 323 334 307 87 79 328 52 2 293 148 253 354 51 95 122 132 176 224 206 216 261 314 291 231 184 197 255 223 182 150 211 171 144 170 174 177 187 191 193 187 186 187 186 187 186 183 180 176 175 178 180 180 180 181 176 171 172 171 171 173 171 169 166 167 170 173 175 171 168 159 147 137 131 137 140 139 138 139 139 137 137 131 126 130 177 181 146 133 142 207 246 280 308
358 357 4 356 328 35 351 43 86 77 58 23 287 278 17 49 71 136 151 159 188 196 179 222 324 256 37 18 150 142 257 257 142 104 88 155 158 179 180 178 184 195 195 188 188 188 188 188 187 186 183 180 178 180 182 180 181 181 178 174 175 175 174 176 175 174 172 172 175 180 180 174 168 153 144 136 129 134 134 136 135 133 131 131 133 128 127 131 187 211 159 163 233 265 269 276 287
12 10 355 3 17 26 41 43 137 120 62 239 258 301 30 99 121 139 174 184 184 153 116 95 20 246 118 56 245 179 243 289 144 137 149 182 181 185 181 175 180 196 196 190 190 190 190 188 189 187 185 183 180 182 183 182 184 183 180 178 179 180 179 179 179 178 175 175 181 185 182 175 162 150 148 142 140 144 142 142 138 135 130 127 131 125 127 139 195 257 152 160 247 276 281 282 288
10 8 341 1 66 18 68 62 78 93 250 208 131 290 217 123 101 84 246 197 178 138 136 124 19 286 100 229 223 190 233 277 161 141 150 183 171 165 174 173 178 192 197 191 191 193 193 190 189 189 187 185 182 184 185 185 186 186 185 183 183 184 182 182 181 179 177 180 186 186 181 173 159 156 158 153 159 166 161 152 146 154 152 144 151 146 144 203 241 269 244 197 256 285 296 295 298
2 2 341 39 111 141 86 45 313 293 243 178 139 261 187 115 110 50 348 39 135 119 129 115 156 320 327 257 205 199 213 140 149 138 150 169 154 153 168 173 176 188 197 192 194 196 195 193 191 191 189 187 185 186 188 189 189 190 190 187 186 187 186 184 182 182 181 183 188 187 181 173 165 165 169 170 169 172 171 160 162 191 184 163 158 165 172 201 194 235 242 225 259 289 302 300 301
352 355 358 46 350 63 88 197 237 250 249 178 157 215 136 109 112 62 352 22 23 7 69 155 132 77 271 270 275 255 207 154 167 145 151 157 149 147 163 173 175 185 196 196 196 198 199 196 194 193 192 190 188 188 190 191 192 193 194 192 189 190 189 186 185 186 185 187 189 188 183 176 172 170 178 183 178 179 177 169 180 208 209 189 173 173 174 208 214 214 236 219 251 289 300 296 294
329 326 60 81 15 17 84 258 249 211 249 227 168 154 119 120 108 73 322 315 318 272 30 260 107 90 271 329 293 272 48 135 151 149 152 153 155 148 163 176 177 184 194 199 199 200 200 200 198 195 195 194 190 191 193 193 195 196 196 194 192 192 191 187 188 189 189 191 191 190 185 180 177 177 186 192 192 203 203 192 195 198 211 207 195 197 204 234 234 221 226 214 250 285 294 289 287
316 193 41 73 48 2 352 302 286 239 270 283 122 89 103 108 102 97 285 315 303 181 211 212 128 125 278 348 276 276 44 146 148 154 159 162 164 154 167 178 182 185 190 196 202 204 201 202 202 199 198 197 194 194 195 196 197 198 198 196 194 195 192 190 190 192 193 194 195 194 188 183 183 185 196 203 207 222 225 220 221 223 229 224 215 212 212 220 218 217 219 213 254 285 293 285 272
6 118 68 71 59 1 327 302 285 288 289 290 43 83 104 97 84 81 231 288 286 164 242 204 120 181 266 320 268 288 238 176 163 163 169 173 169 163 170 178 186 189 189 192 199 205 203 203 204 203 201 199 198 197 198 199 199 201 201 199 198 197 194 192 191 194 195 195 198 198 191 187 189 193 206 214 217 230 235 238 243 241 235 217 211 205 198 198 198 210 211 216 261 290 292 269 203
27 343 84 74 33 350 284 285 288 289 290 306 21 1 99 101 79 15 338 301 295 307 265 116 89 237 240 272 261 278 190 186 190 183 175 176 172 170 172 174 184 193 194 191 196 203 205 204 203 206 205 203 202 199 200 201 202 203 204 204 203 201 199 197 194 196 196 197 199 197 192 190 192 200 211 219 225 235 241 248 250 233 211 204 202 196 193 191 192 199 206 226 271 293 267 186 154
57 330 60 76 349 224 241 284 294 297 319 356 10 304 25 97 87 308 315 307 313 353 274 189 193 198 128 273 263 248 176 191 212 202 182 179 177 170 174 175 180 193 199 195 197 201 205 204 200 204 207 207 205 203 203 203 205 206 206 208 207 206 204 202 199 198 199 199 197 194 193 193 198 207 214 222 230 238 244 250 248 218 198 197 196 191 191 190 190 196 209 234 278 274 168 150 145
82 330 74 88 219 237 285 294 293 318 340 337 211 278 13 86 141 213 257 309 324 356 285 210 155 91 233 269 288 279 201 205 206 196 187 182 180 168 174 179 180 189 197 201 200 203 205 204 201 201 205 208 208 207 207 206 207 208 208 210 210 209 207 207 205 202 202 199 196 195 195 198 205 211 216 225 233 239 243 246 244 223 201 192 192 189 189 190 192 202 214 240 274 185 153 148 145
119 170 99 244 290 333 280 282 298 328 302 266 231 267 10 110 198 174 142 311 298 276 231 217 164 93 256 272 307 287 228 211 197 191 188 178 177 171 177 183 184 187 192 202 204 205 206 206 205 203 203 206 209 209 210 209 208 209 210 211 211 210 209 210 210 206 204 201 197 198 199 203 210 214 220 229 235 237 239 242 242 229 205 192 192 190 190 192 195 205 216 245 232 171 155 152 147
148 85 96 92 327 332 252 228 234 170 247 251 223 219 58 271 193 144 181 236 267 231 206 256 159 134 233 214 258 258 225 210 199 193 188 180 176 172 181 185 189 190 190 200 206 208 208 208 207 206 207 207 209 210 211 210 210 211 211 212 212 211 211 211 212 209 206 205 203 203 205 207 213 220 227 232 234 235 238 242 243 230 204 192 194 192 192 195 197 199 212 246 220 171 161 155 152
114 92 71 52 293 310 250 224 178 99 263 252 250 128 69 302 252 146 223 191 265 272 294 261 191 201 227 209 245 254 237 205 197 194 189 184 183 177 185 191 193 195 195 199 206 212 211 211 210 209 210 210 211 212 212 211 210 212 212 213 213 213 211 210 212 210 208 209 209 210 212 213 217 224 230 233 234 238 241 245 248 235 207 195 196 193 194 196 194 191 204 240 216 176 168 159 158
65 75 69 332 236 232 232 229 16 248 258 272 295 96 101 307 321 314 282 294 262 284 283 249 226 222 227 244 259 262 235 195 191 190 187 186 190 186 191 196 197 199 201 202 206 212 214 214 213 212 212 213 214 213 212 211 211 212 213 214 214 214 212 210 212 211 211 212 214 216 218 220 222 225 229 233 236 239 243 246 250 242 215 201 200 196 194 194 193 188 198 231 211 175 168 162 163
59 82 118 225 222 217 211 218 288 234 255 286 283 53 87 333 319 340 329 315 270 282 282 269 266 249 244 256 267 269 218 192 189 187 186 188 191 195 200 203 205 206 207 208 209 210 214 217 217 216 214 214 214 214 213 211 211 211 213 213 212 214 212 211 212 213 213 214 216 219 222 225 226 228 231 234 237 240 244 247 249 246 225 206 204 199 195 194 194 188 194 223 205 174 175 167 168
104 135 157 222 212 227 247 276 314 322 282 293 306 14 54 315 299 344 287 282 284 284 278 282 283 271 262 269 275 249 208 195 195 195 192 195 199 204 209 210 211 214 214 215 217 214 214 217 219 219 218 215 213 215 214 211 211 209 211 213 212 213 213 213 214 214 215 216 218 221 225 228 230 232 235 238 241 242 245 249 248 245 232 212 206 204 199 197 196 186 192 217 201 182 184 174 175
173 148 186 240 224 256 288 295 307 307 291 308 313 350 360 291 289 342 275 281 281 262 260 273 279 275 269 275 279 210 200 198 200 203 205 211 214 216 217 217 218 222 225 227 228 223 218 217 219 221 222 219 215 214 213 211 211 210 210 211 212 212 212 213 215 217 218 220 222 224 227 230 233 236 238 240 241 242 244 246 245 243 235 217 209 208 204 200 195 188 197 211 200 193 190 182 181
176 152 193 233 222 258 273 284 302 311 335 334 305 326 324 291 289 293 284 293 280 252 241 247 262 273 269 265 277 218 194 201 207 210 218 224 226 227 230 232 235 240 241 236 231 228 224 222 220 220 222 221 217 214 212 212 212 212 211 211 212 213 213 214 215 218 221 224 225 226 229 231 234 236 237 238 239 241 241 241 240 239 234 220 212 212 209 205 199 198 207 208 200 201 195 191 189
188 202 208 225 222 256 267 284 300 306 328 327 319 314 294 290 316 265 268 277 267 258 241 238 249 264 267 264 281 264 206 206 210 213 222 229 232 232 235 239 244 247 244 236 232 231 229 227 224 220 219 219 219 216 214 214 214 214 213 213 214 215 215 215 216 218 221 225 228 230 230 231 232 234 235 236 238 239 239 238 237 236 232 220 214 215 214 213 211 212 217 210 204 209 201 197 194
217 253 227 227 226 237 263 287 294 295 293 287 287 274 268 318 300 243 232 253 259 266 254 246 252 261 271 275 280 276 254 236 221 218 222 230 234 236 238 239 241 242 240 239 239 235 229 227 227 222 218 217 218 218 216 216 216 217 217 216 216 217 217 217 218 220 222 224 228 231 231 231 231 231 232 234 235 236 237 237 236 233 228 219 216 217 218 219 221 223 225 215 209 215 210 203 198
207 262 255 240 238 242 275 296 303 299 262 249 267 295 289 278 281 243 236 256 263 271 265 256 260 268 279 280 271 268 266 262 254 243 233 232 236 240 243 243 245 242 239 244 245 238 231 228 226 223 220 218 217 218 217 217 217 218 219 218 218 220 220 219 221 222 224 224 226 230 231 232 232 231 231 232 233 234 235 235 234 231 224 218 218 220 221 222 224 227 228 219 212 216 216 212 206
214 248 251 262 275 279 300 300 297 293 266 263 288 292 269 236 261 287 264 268 270 271 275 270 265 272 278 276 271 265 264 267 269 265 252 244 242 242 244 248 249 240 237 244 244 240 237 231 226 223 222 220 218 217 217 218 217 218 219 219 220 221 222 222 224 225 226 226 226 229 231 232 231 231 231 231 230 231 233 232 231 229 224 220 219 221 223 224 226 228 228 222 215 216 217 216 213
249 278 286 311 297 287 301 298 286 284 274 270 273 277 270 238 263 281 261 263 268 274 284 278 275 273 268 271 268 261 263 265 268 273 270 258 245 235 236 242 242 238 242 244 241 243 242 233 226 225 225 224 220 217 217 217 217 217 218 220 220 222 223 224 225 227 228 228 228 229 230 231 230 230 230 229 228 229 230 229 228 227 226 222 220 222 224 225 228 229 228 222 217 216 217 217 213
288 351 324 300 293 293 293 290 282 279 272 258 244 263 271 245 171 269 261 256 267 292 292 283 285 271 258 266 276 282 278 269 275 282 288 285 262 240 246 255 249 247 247 242 242 247 244 234 228 228 228 226 223 219 219 218 217 218 219 220 221 223 224 225 226 228 229 229 230 230 230 230 230 229 228 227 227 227 227 227 227 225 225 224 222 223 224 226 228 230 231 224 219 218 219 218 214
328 354 336 307 309 312 290 280 277 276 269 239 207 245 275 281 179 248 262 265 281 297 288 288 286 276 279 291 296 307 298 306 332 355 7 11 24 33 28 13 332 287 266 254 255 252 245 239 233 230 229 227 225 223 222 221 220 221 221 221 221 223 223 224 227 229 231 231 230 229 229 229 229 228 227 226 225 224 225 226 227 226 226 226 224 223 225 227 228 230 231 227 221 219 221 221 216
322 328 333 303 323 314 281 272 265 256 249 208 160 242 284 258 231 245 257 274 295 293 284 287 283 286 326 344 324 328 353 23 36 40 38 38 40 42 39 32 27 14 335 286 273 265 256 249 240 233 229 227 227 226 226 224 224 223 223 223 223 223 223 225 229 231 231 230 228 226 228 229 228 227 226 226 226 225 225 225 227 228 227 227 226 224 223 225 225 225 225 223 219 217 219 220 215
319 325 53 292 337 307 272 265 261 259 239 168 142 212 270 247 250 253 260 277 297 289 279 278 281 305 4 357 359 25 37 46 50 44 39 39 38 39 38 36 38 36 29 9 308 290 276 257 245 237 228 228 229 229 229 227 227 226 226 227 227 227 227 228 230 230 229 228 226 226 228 229 228 227 227 227 226 226 226 226 228 229 228 227 227 224 222 222 222 220 219 218 216 216 217 217 214
305 315 100 267 301 278 278 277 270 276 272 157 151 208 258 252 263 267 273 282 285 289 284 280 291 329 0 360 38 57 49 46 47 43 40 37 37 39 39 38 40 41 42 44 37 358 305 269 250 240 231 230 231 231 232 231 229 228 228 229 229 230 230 229 229 228 228 228 227 227 228 229 228 228 228 228 227 227 227 227 229 230 229 226 226 224 222 221 220 219 218 216 213 214 216 215 215
282 283 304 278 199 262 296 290 258 222 277 56 144 211 263 257 268 274 280 288 297 298 287 290 317 336 350 24 61 66 48 43 43 39 36 36 38 39 38 39 40 41 45 48 52 49 33 7 263 247 235 232 233 233 233 232 232 231 230 231 231 232 231 230 230 231 232 230 229 228 228 228 229 229 229 229 228 228 229 230 231 231 228 226 224 223 221 221 220 219 219 217 212 210 211 211 214
291 206 244 258 222 258 303 299 291 148 121 7 208 230 270 266 270 273 280 294 305 296 288 305 343 348 20 60 66 60 47 42 38 33 32 35 38 39 39 39 39 41 46 51 56 60 56 49 48 41 31 251 244 240 234 232 233 233 233 235 236 236 235 233 233 233 232 231 230 229 228 229 230 231 231 230 230 230 231 234 233 230 228 226 224 222 222 222 221 218 217 217 216 213 209 208 210
292 244 225 243 238 235 274 300 316 90 118 234 253 236 245 265 278 281 286 290 287 284 291 312 342 25 64 74 65 58 51 45 36 29 30 34 39 41 41 40 40 42 47 53 58 62 62 54 47 39 32 23 7 340 240 231 228 229 231 235 239 239 238 237 235 234 233 233 234 232 231 231 231 232 232 232 231 232 234 235 234 230 227 226 225 224 224 223 222 220 216 214 216 216 213 209 209
239 244 239 259 254 239 252 273 290 317 285 266 277 262 256 270 278 279 276 270 272 277 286 305 353 66 80 74 69 64 57 52 40 33 35 39 41 42 43 43 43 43 46 52 56 60 62 58 51 43 35 26 18 23 35 224 218 216 221 228 240 243 242 239 237 236 235 235 237 237 236 235 234 234 234 234 233 233 234 235 235 231 229 228 226 225 224 222 221 220 218 215 214 216 219 215 211
222 236 240 252 259 257 255 256 265 293 304 287 275 270 274 279 278 280 276 271 274 286 306 342 62 86 85 74 72 64 60 56 44 42 43 44 44 44 45 45 46 48 49 52 55 56 56 55 54 50 43 37 32 33 35 25 1 352 249 242 251 257 255 248 242 240 240 240 242 243 242 242 241 239 238 237 237 236 235 236 236 234 232 229 227 226 225 224 223 221 219 216 213 212 217 216 212
231 248 256 252 252 262 263 263 273 305 318 266 259 283 296 290 291 286 283 295 311 309 5 77 91 90 83 78 73 65 65 59 50 49 47 47 47 47 47 46 47 50 51 53 54 53 52 52 50 48 46 46 45 44 42 37 28 19 12 358 330 310 288 276 268 257 251 250 250 250 251 250 248 246 244 242 241 240 239 238 237 236 234 231 230 230 229 228 227 224 220 217 214 211 210 211 211
241 242 250 257 248 248 256 261 275 319 349 261 291 340 307 292 294 285 286 310 324 325 85 106 101 91 82 79 75 69 69 57 51 48 44 46 45 45 46 45 45 46 47 51 52 52 51 50 48 46 47 47 46 45 48 47 42 39 38 34 18 350 327 306 293 285 276 268 264 261 260 258 255 252 250 247 245 244 243 241 239 237 235 233 233 232 232 230 228 226 221 216 216 214 212 209 205
253 256 254 262 259 270 287 286 298 8 41 271 312 327 292 285 276 277 293 335 6 36 85 96 91 92 84 78 78 74 69 55 49 44 41 44 44 45 45 43 44 44 43 46 47 49 48 47 47 49 49 48 44 43 44 46 47 48 47 45 41 36 29 8 336 306 291 280 273 269 268 267 265 262 257 253 250 248 246 244 241 239 237 235 233 232 231 230 228 226 223 219 216 215 216 212 206
254 255 261 267 271 287 285 296 326 344 266 253 296 299 286 281 270 283 336 56 72 67 78 76 75 87 84 81 80 72 71 63 56 50 42 43 44 45 45 43 44 45 43 42 42 42 42 42 44 47 50 50 47 44 43 45 53 57 54 51 49 45 36 26 18 3 334 308 288 277 275 274 275 274 269 263 257 253 251 249 246 243 240 238 236 233 231 230 229 227 225 223 217 212 212 212 209
259 227 219 246 261 231 229 278 331 332 320 329 9 330 297 259 263 289 52 80 81 72 80 79 73 82 86 83 76 69 72 68 64 59 46 43 44 44 44 45 44 44 43 42 42 43 43 43 43 44 47 50 50 47 45 45 53 61 65 65 62 55 45 35 25 18 7 348 320 301 292 285 283 282 279 274 268 263 259 256 253 248 245 242 239 237 235 234 233 230 228 225 220 215 214 214 210
291 237 213 223 238 239 240 334 14 15 336 314 48 12 295 271 270 262 108 89 69 61 74 81 79 80 83 79 75 73 70 66 62 61 55 50 48 46 45 44 44 43 40 41 45 47 48 47 46 46 46 47 49 50 48 48 50 54 60 62 61 56 48 37 27 21 17 12 356 327 307 297 293 292 290 285 280 274 269 264 260 255 251 248 245 243 239 237 236 233 232 228 224 222 220 217 212
279 250 206 191 193 194 162 54 46 80 249 277 69 106 270 287 278 261 120 93 78 70 70 77 79 72 75 76 78 80 75 74 66 56 53 50 49 49 47 46 46 45 43 43 45 46 49 50 50 49 48 47 48 51 52 49 46 46 52 58 57 54 48 38 28 22 19 21 20 5 332 314 308 306 304 298 292 285 278 272 268 263 259 255 252 249 244 241 240 238 236 232 230 227 223 220 218
237 241 136 113 123 136 154 130 175 225 245 308 302 176 250 278 256 247 112 98 91 87 80 79 82 77 77 73 67 70 72 78 77 66 52 44 44 47 48 48 49 49 48 48 46 45 47 49 52 53 51 48 48 52 55 52 47 43 44 49 51 51 47 41 33 27 21 20 25 23 2 335 317 312 310 307 302 296 290 283 277 272 266 262 258 255 252 249 246 243 241 237 234 231 227 226 225
237 220 129 110 132 150 176 161 207 255 327 307 263 185 228 270 262 202 117 119 128 124 115 106 99 90 88 83 72 63 57 58 70 76 67 55 49 48 49 50 51 52 52 51 50 48 48 49 52 54 52 50 49 51 54 54 52 47 43 43 43 44 43 43 39 34 28 22 22 24 17 2 335 314 305 305 306 303 299 295 289 282 276 271 266 263 261 257 252 248 245 242 238 235 232 231 231
233 171 105 64 91 135 152 145 143 354 329 250 235 186 195 268 291 97 122 143 160 147 132 119 110 98 91 88 85 73 61 52 49 60 64 62 58 52 51 51 51 52 53 54 53 51 51 50 51 52 50 49 50 51 51 51 51 49 46 42 40 40 39 39 38 33 28 23 19 16 14 13 5 347 325 308 302 302 302 300 297 292 287 283 276 271 268 264 260 255 251 248 245 242 238 235 234
121 87 59 23 7 17 35 101 103 61 287 246 226 198 185 266 294 190 174 191 163 148 138 132 115 101 95 84 83 75 67 65 56 54 53 55 57 53 50 48 48 49 52 53 52 51 50 49 50 51 50 49 50 50 50 50 49 49 47 44 42 40 38 37 35 30 25 21 18 13 8 7 7 8 2 344 323 312 305 299 297 294 292 290 285 282 278 274 270 265 260 255 251 248 244 240 238
95 78 71 29 339 7 29 5 47 101 251 260 241 201 180 224 267 275 314 245 148 144 147 145 133 122 115 98 91 78 66 65 60 55 46 46 48 46 44 43 44 46 47 47 47 48 48 47 49 51 50 50 50 49 50 50 50 50 49 49 47 44 41 40 37 32 26 21 18 13 9 6 2 2 3 4 358 344 326 310 299 293 291 290 290 292 289 285 282 276 270 263 258 255 251 246 242
84 91 97 79 318 359 16 309 30 200 246 258 239 146 172 223 258 1 355 24 106 118 131 136 133 133 126 109 99 80 68 63 57 56 47 44 45 43 42 41 43 45 44 45 46 47 48 47 49 51 50 50 51 51 51 51 50 50 50 50 49 48 47 45 42 37 31 26 20 15 11 6 1 358 354 354 355 352 347 337 318 302 295 293 292 295 298 296 292 286 280 273 267 263 259 254 249
136 145 143 149 166 157 256 260 258 262 267 263 244 82 238 251 333 32 18 32 83 102 109 121 126 129 128 119 104 80 68 61 58 58 51 49 49 48 48 46 46 47 45 47 48 48 49 48 49 52 52 52 53 52 52 53 52 51 52 52 50 49 49 48 46 43 39 34 30 25 20 13 6 1 354 348 344 341 339 340 336 321 307 299 295 297 301 301 298 293 287 281 275 271 267 263 258
182 167 145 151 163 170 209 224 216 247 276 282 285 293 219 220 17 35 42 48 74 94 104 110 110 115 119 108 93 83 75 68 67 65 59 58 57 55 55 52 51 50 49 49 49 50 51 49 50 52 51 51 51 51 51 52 52 52 52 52 51 50 49 49 48 45 43 39 35 32 29 24 17 11 4 356 348 340 334 331 332 333 323 310 302 301 303 303 302 298 293 287 283 279 274 269 265
228 148 122 174 193 167 191 220 186 182 280 287 265 241 190 141 89 59 72 71 76 87 98 105 107 109 108 104 101 101 94 87 86 81 73 67 64 62 59 55 53 52 52 52 53 54 55 54 54 53 52 51 50 49 49 48 49 49 49 48 47 47 46 46 46 44 42 39 36 33 30 27 23 18 14 9 3 355 346 337 329 326 324 316 309 307 307 306 305 302 298 292 288 285 280 275 271
229 115 174 225 189 137 130 272 212 126 253 256 202 204 31 81 111 95 91 88 94 108 115 121 129 120 113 124 133 130 128 124 118 114 105 82 72 66 60 55 52 52 54 55 56 58 57 55 54 52 50 49 46 45 44 43 43 43 42 42 41 39 39 38 38 37 35 34 33 30 27 25 22 18 15 12 10 6 1 354 344 333 324 316 311 310 309 309 308 305 301 297 293 290 286 281 278
126 162 222 235 29 75 97 251 304 287 250 262 239 224 216 183 214 164 134 143 150 164 155 139 137 132 141 161 161 158 153 139 118 100 90 79 70 59 55 54 54 57 59 59 60 61 61 59 56 53 49 45 43 42 42 40 39 37 36 35 34 33 32 31 29 27 25 24 25 23 22 21 18 15 13 10 8 6 4 2 358 351 343 333 322 316 312 311 309 307 304 300 298 295 290 286 283
129 182 234 111 73 310 9 144 215 241 245 269 274 253 230 204 194 173 182 184 175 177 167 153 161 171 174 173 171 168 145 124 105 92 83 75 67 54 53 56 60 67 68 67 67 62 61 57 54 53 49 45 42 40 40 38 36 34 31 30 29 27 26 24 21 18 16 15 14 13 12 12 11 9 8 7 4 2 0 359 358 356 354 349 343 335 325 318 313 308 306 303 302 298 293 290 287
47 50 339 45 155 185 218 194 178 206 237 258 271 267 254 236 195 170 181 185 174 172 171 177 188 188 186 177 172 166 142 131 125 127 139 106 77 62 62 64 64 71 72 72 68 56 52 47 43 43 40 39 38 35 35 33 30 28 25 23 22 20 19 16 13 10 8 7 6 4 3 2 1 0 359 359 358 357 355 353 353 351 351 351 350 347 341 332 322 314 308 305 304 301 296 293 291
76 72 282 274 209 195 262 244 163 161 217 237 254 259 254 261 199 169 177 178 168 168 170 186 198 189 184 179 169 163 149 149 152 153 154 122 86 78 81 78 74 73 64 55 43 33 32 27 23 22 18 20 22 22 23 22 21 19 16 14 11 9 8 6 5 3 1 359 358 357 356 354 353 351 351 350 349 349 348 346 346 346 347 347 347 347 345 339 331 322 315 309 306 303 299 295 293
134 161 195 182 174 173 264 261 210 152 208 211 232 261 266 278 278 162 164 162 162 169 173 184 194 179 171 171 164 161 153 155 164 162 163 179 215 222 196 3 14 16 9 12 10 7 9 8 8 5 3 5 5 6 9 8 9 8 6 3 360 356 355 353 354 353 351 350 348 347 347 345 344 343 343 342 340 340 339 338 338 339 341 341 341 341 341 340 336 328 321 314 309 306 302 298 295